OSCAR 27 [?]

Last updated on Tue Jun 27 2023 00:03:36 GMT+0000 (Coordinated Universal Time)

1 18361U 87080A 23176.71146276 .00000095 00000+0 14630-3 0 9995 2 18361 90.3453 46.8249 0102351 285.3662 73.6195 13.44638467754724
UTC large
Height (km)
Speed (km/s)
/
Latitude / Longitude
Inclination (degrees)
Orbital Period (minutes)
Azimuth
Elevation
Range (km)
Doppler Factor

Next 0 passes for location: London (51.5072 / 0.1276)

Sorry there are no passes over London.